1339027233142,21.8307
1339027293142,21.7191
1339027353142,22.2305
1339027413142,21.7145
1339027473142,21.6869
1339027533142,21.6999
1339027593142,21.7959
1339027653142,21.7507
1339027713142,21.7950
1339027773142,21.7286
1339027833142,21.8188
1339027893142,21.7063
1339027953142,21.7624
1339028013142,21.8336
1339028073142,21.8751
1339028133142,21.7880
1339028193142,21.7863
1339028253142,21.7537
1339028313142,21.7737
1339028373142,21.6511
1339028433142,21.6946
1339028493142,21.6601
1339028553142,21.6428
1339028613142,21.6675
1339028673142,21.6631
1339028733142,21.6477
1339028793142,21.6878
1339028853142,21.7205
1339028913142,21.5614
1339028973142,21.6248
1339029033142,21.6608
1339029093142,21.5930
1339029153142,21.6185
1339029213142,21.5851
1339029273142,21.6253
1339029333142,21.6406
1339029393142,21.6784
1339029453142,21.5995
1339029513142,21.7153
1339029573142,21.6538
1339029633142,21.6184
1339029693142,21.7314
1339029753142,21.7170
1339029813142,21.6198
1339029873142,21.7242
1339029933142,21.6888
1339029993142,21.6436
1339030053142,21.6709
1339030113142,21.6343
1339030173142,21.6888
1339030233142,21.7079
1339030293142,21.6971
1339030353142,21.7675
1339030413142,21.7258
1339030473142,21.6953
1339030533142,21.5935
1339030593142,21.6388
1339030653142,21.6396
1339030713142,21.6262
1339030773142,21.6460
1339030833153,21.7079
1339030893153,21.6983
1339030953153,21.6162
1339031013153,21.6266
1339031073153,21.7013
1339031133153,21.6980
1339031193153,21.6225
1339031253153,21.5960
1339031313153,21.6052
1339031373153,21.5465
1339031433153,21.6331
1339031493153,21.6126
1339031553153,21.5896
1339031613153,21.6576
1339031673153,21.6627
1339031733153,21.6713
1339031793153,21.6183
1339031853153,21.6090
1339031913153,21.5863
1339031973153,21.5367
1339032033153,21.5982
1339032093153,21.5603
1339032153153,21.5500
1339032213153,21.5911
1339032273153,21.5154
1339032333153,21.5365
1339032393153,21.5817
1339032453153,21.5683
1339032513153,21.5035
1339032573153,21.5510
1339032633153,21.4867
1339032693153,21.4932
1339032753153,21.5110
1339032813153,21.4934
1339032873153,21.4910
1339032933153,21.5504
1339032993153,21.4601
1339033053153,21.5529
1339033113153,21.5099
1339033173153,21.6212
1339033233153,21.6008
1339033293153,21.5783
1339033353153,21.5772
1339033413153,21.5332
1339033473153,21.4864
1339033533153,21.5564
1339033593153,21.6102
1339033653153,21.6281
1339033713153,21.6499
1339033773153,21.7240
1339033833153,21.7370
1339033893153,21.7801
1339033953153,21.8196
1339034013153,21.8976
1339034073153,21.8639
1339034133153,21.9559
1339034193153,21.9370
1339034253153,22.0328
1339034313153,22.1051
1339034373153,22.0514
1339034433163,22.0305
1339034493163,22.0570
1339034553163,21.9324
1339034613163,21.9417
1339034673163,21.9088
1339034733163,21.7517
1339034793163,21.8413
1339034853163,21.7513
1339034913163,21.7517
1339034973163,21.5981
1339035033163,21.6977
1339035093163,21.7020
1339035153163,21.6868
1339035213163,21.6414
1339035273163,21.5664
1339035333163,21.5812
1339035393163,21.5705
1339035453163,21.5512
1339035513163,21.5470
1339035573163,21.5146
1339035633163,21.5061
1339035693163,21.5192
1339035753163,21.5117
1339035813163,21.5555
1339035873163,21.6075
1339035933163,21.6706
1339035993163,21.6987
1339036053163,21.6222
1339036113163,21.6647
1339036173163,21.6780
1339036233163,21.6930
1339036293163,21.7530
1339036353163,21.7430
1339036413163,21.7370
1339036473163,21.7318
1339036533163,21.6339
1339036593163,21.7497
1339036653163,21.9118
1339036713163,21.8051
1339036773163,21.7705
1339036833163,21.7883
1339036893163,21.8662
1339036953163,21.6992
1339037013163,21.7783
1339037073163,21.7589
1339037133163,21.8271
1339037193163,21.8043
1339037253163,21.8830
1339037313163,21.8271
1339037373163,21.8345
1339037433163,21.8630
1339037493163,21.7899
1339037553163,21.7955
1339037613163,21.7798
1339037673163,21.7625
1339037733163,21.7685
1339037793163,21.7757
1339037853163,21.7614
1339037913163,21.7090
1339037973163,21.6403
1339038033173,21.7045
1339038093173,21.7327
1339038153173,21.6999
1339038213173,21.6779
1339038273173,21.7072
1339038333173,21.7103
1339038393173,21.6875
1339038453173,21.7116
1339038513173,21.6662
1339038573173,21.7240
1339038633173,21.7572
1339038693173,21.7788
1339038753173,21.7865
1339038813173,21.7925
1339038873173,21.7946
1339038933173,21.7897
1339038993173,21.7921
1339039053173,21.8535
1339039113173,21.8440
1339039173173,21.9174
1339039233173,21.9038
1339039293173,21.8516
1339039353173,21.8256
1339039413173,21.8320
1339039473173,21.7385
1339039533173,21.8226
1339039593173,21.7299
1339039653173,21.8097
1339039713173,21.7884
1339039773173,21.8103
1339039833173,21.7717
1339039893173,21.8238
1339039953173,21.8090
1339040013173,21.8237
1339040073173,21.8010
1339040133173,21.7553
1339040193173,21.7322
1339040253173,21.7696
1339040313173,21.7827
1339040373173,21.7041
1339040433173,21.7532
1339040493173,21.7281
1339040553173,21.6271
1339040613173,21.7448
1339040673173,21.7601
1339040733173,21.7064
1339040793173,21.7616
1339040853173,21.6193
1339040913173,21.6908
1339040973173,21.6913
1339041033173,21.6139
1339041093173,21.6434
1339041153173,21.6167
1339041213173,21.5940
1339041273173,21.6110
1339041333173,21.6612
1339041393173,21.7037
1339041453173,21.6683
1339041513173,21.6828
1339041573173,21.8126
1339041633182,21.7261
1339041693182,21.6424
1339041753182,21.6664
1339041813182,21.6384
1339041873182,21.6921
1339041933182,21.6383
1339041993182,21.6561
1339042053182,21.5573
1339042113182,21.5695
1339042173182,21.5984
1339042233182,21.6231
1339042293182,21.6318
1339042353182,21.7075
1339042413182,21.7372
1339042473182,21.6882
1339042533182,21.6264
1339042593182,21.5840
1339042653182,21.5803
1339042713182,21.6066
1339042773182,21.6195
1339042833182,21.5780
1339042893182,21.6373
1339042953182,21.5812
1339043013182,21.5108
1339043073182,21.5540
1339043133182,21.5930
1339043193182,21.5532
1339043253182,21.5385
1339043313182,21.5105
1339043373182,21.6375
1339043433182,21.6049
1339043493182,21.6505
1339043553182,21.5593
1339043613182,21.5393
1339043673182,21.5856
1339043733182,21.5774
1339043793182,21.5818
1339043853182,21.5658
1339043913182,21.4891
1339043973182,21.4949
1339044033182,21.5689
1339044093182,21.6062
1339044153182,21.5912
1339044213182,21.6075
1339044273182,21.4850
1339044333182,21.5229
1339044393182,21.5051
1339044453182,21.5054
1339044513182,21.4924
1339044573182,21.5338
1339044633182,21.5224
1339044693182,21.5767
1339044753182,21.5465
1339044813182,21.5947
1339044873182,21.5826
1339044933182,21.5583
1339044993182,21.5514
1339045053182,21.5675
1339045113182,21.5609
1339045173182,21.5507
1339045233192,21.5691
1339045293192,21.6245
1339045353192,21.5469
1339045413192,21.5645
1339045473192,21.5218
1339045533192,21.5693
1339045593192,21.5397
1339045653192,21.5369
1339045713192,21.5711
1339045773192,21.5884
1339045833192,21.5727
1339045893192,21.5505
1339045953192,21.6434
1339046013192,21.5875
1339046073192,21.6102
1339046133192,21.5867
1339046193192,21.5787
1339046253192,21.5358
1339046313192,21.5758
1339046373192,21.5757
1339046433192,21.5775
1339046493192,21.5409
1339046553192,21.5944
1339046613192,21.5954
1339046673192,21.5506
1339046733192,21.6013
1339046793192,21.5253
1339046853192,21.5330
1339046913192,21.4964
1339046973192,21.5547
1339047033192,21.5990
1339047093192,21.5683
1339047153192,21.5428
1339047213192,21.5370
1339047273192,21.5270
1339047333192,21.6214
1339047393192,21.5326
1339047453192,21.4344
1339047513192,21.4974
1339047573192,21.5443
1339047633192,21.5017
1339047693192,21.4830
1339047753192,21.5633
1339047813192,21.5770
1339047873192,21.5204
1339047933192,21.5537
1339047993192,21.5208
1339048053192,21.5073
1339048113192,21.5192
1339048173192,21.5372
1339048233192,21.5388
1339048293192,21.5330
1339048353192,21.6779
1339048413192,21.7052
1339048473192,21.7464
1339048533192,21.7093
1339048593192,21.6922
1339048653192,21.7191
1339048713192,21.7685
1339048773192,21.7838
1339048833201,21.7916
1339048893201,21.8825
1339048953201,21.8996
1339049013201,21.8024
1339049073201,21.8883
1339049133201,21.7753
1339049193201,21.7896
1339049253201,21.8264
1339049313201,21.7501
1339049373201,21.7083
1339049433201,21.7435
1339049493201,21.7096
1339049553201,21.7919
1339049613201,21.7173
1339049673201,21.7607
1339049733201,21.7369
1339049793201,21.8257
1339049853201,21.7082
1339049913201,21.6820
1339049973201,21.7321
1339050033201,21.6809
1339050093201,21.6757
1339050153201,21.7208
1339050213201,21.6127
1339050273201,21.7464
1339050333201,21.7056
1339050393201,21.6619
1339050453201,21.7299
1339050513201,21.7119
1339050573201,21.7458
1339050633201,21.7247
1339050693201,21.7487
1339050753201,21.7038
1339050813201,21.7301
1339050873201,21.7905
1339050933201,21.7253
1339050993201,21.7667
1339051053201,21.7265
1339051113201,21.7617
1339051173201,21.7785
1339051233201,21.7517
1339051293201,21.7022
1339051353201,21.6822
1339051413201,21.7066
1339051473201,21.7285
1339051533201,21.6776
1339051593201,21.7145
1339051653201,21.7035
1339051713201,21.6884
1339051773201,21.6360
1339051833201,21.6985
1339051893201,21.6863
1339051953201,21.6737
1339052013201,21.7218
1339052073201,21.7826
1339052133201,21.7108
1339052193201,21.7184
1339052253201,21.6637
1339052313201,21.6721
1339052373201,21.7282
1339052433211,21.6699
1339052493211,21.6336
1339052553211,21.7238
1339052613211,21.7162
1339052673211,21.7128
1339052733211,21.6453
1339052793211,21.6727
1339052853211,21.7145
1339052913211,21.7113
1339052973211,21.7379
1339053033211,21.7498
1339053093211,21.6843
1339053153211,21.6477
1339053213211,21.6668
1339053273211,21.6550
1339053333211,21.6650
1339053393211,21.6523
1339053453211,21.6487
1339053513211,21.5788
1339053573211,21.5632
1339053633211,21.5806
1339053693211,21.6483
1339053753211,21.6240
1339053813211,21.7023
1339053873211,21.6655
1339053933211,21.6123
1339053993211,21.6350
1339054053211,21.5723
1339054113211,21.5314
1339054173211,21.5832
1339054233211,21.5823
1339054293211,21.4958
1339054353211,21.5330
1339054413211,21.5201
1339054473211,21.4632
1339054533211,21.5245
1339054593211,21.4943
1339054653211,21.4137
1339054713211,21.4796
1339054773211,21.4704
1339054833211,21.5461
1339054893211,21.5016
1339054953211,21.5321
1339055013211,21.5555
1339055073211,21.5772
1339055133211,21.5457
1339055193211,21.5795
1339055253211,21.5529
1339055313211,21.5782
1339055373211,21.5560
1339055433211,21.5675
1339055493211,21.5398
1339055553211,21.5421
1339055613211,21.5755
1339055673211,21.5323
1339055733211,21.5527
1339055793211,21.5182
1339055853211,21.5711
1339055913211,21.5088
1339055973211,21.5409
1339056033220,21.5483
1339056093220,21.5778
1339056153220,21.5401
1339056213220,21.5935
1339056273220,21.5416
1339056333220,21.5707
1339056393220,21.5594
1339056453220,21.6241
1339056513220,21.6098
1339056573220,21.5790
1339056633220,21.5851
1339056693220,21.5222
1339056753220,21.5271
1339056813220,21.5825
1339056873220,21.5278
1339056933220,21.5453
1339056993220,21.5845
1339057053220,21.5834
1339057113220,21.5891
1339057173220,21.5513
1339057233220,21.6361
1339057293220,21.7001
1339057353220,21.6310
1339057413220,21.6674
1339057473220,21.6695
1339057533220,21.6849
1339057593220,21.5977
1339057653220,21.6661
1339057713220,21.7205
1339057773220,21.7132
1339057833220,21.6733
1339057893220,21.6856
1339057953220,21.7010
1339058013220,21.6370
1339058073220,21.6916
1339058133220,21.7062
1339058193220,21.6628
1339058253220,21.6696
1339058313220,21.6872
1339058373220,21.6877
1339058433220,21.6562
1339058493220,21.6516
1339058553220,21.6878
1339058613220,21.6324
1339058673220,21.6540
1339058733220,21.5663
1339058793220,21.7448
1339058853220,21.7010
1339058913220,21.6721
1339058973220,21.7102
1339059033220,21.7174
1339059093220,21.7463
1339059153220,21.7193
1339059213220,21.6650
1339059273220,21.6150
1339059333220,21.7023
1339059393220,21.7087
1339059453220,21.6088
1339059513220,21.6483
1339059573220,21.6559
1339059633229,21.6603
1339059693229,21.6960
1339059753229,21.6335
1339059813229,21.6657
1339059873229,21.6541
1339059933229,21.6103
1339059993229,21.6455
1339060053229,21.6274
1339060113229,21.5851
1339060173229,21.6188
1339060233229,21.6643
1339060293229,21.6463
1339060353229,21.6920
1339060413229,21.6541
1339060473229,21.6538
1339060533229,21.6502
1339060593229,21.5975
1339060653229,21.5749
1339060713229,21.5451
1339060773229,21.6031
1339060833229,21.6130
1339060893229,21.6512
1339060953229,21.5995
1339061013229,21.5869
1339061073229,21.5565
1339061133229,21.5756
1339061193229,21.5795
1339061253229,21.5334
1339061313229,21.5891
1339061373229,21.5738
1339061433229,21.5823
1339061493229,21.5255
1339061553229,21.5596
1339061613229,21.6136
1339061673229,21.6251
1339061733229,21.6259
1339061793229,21.5893
1339061853229,21.5915
1339061913229,21.6090
1339061973229,21.6023
1339062033229,21.5787
1339062093229,21.5825
1339062153229,21.5858
1339062213229,21.6100
1339062273229,21.5670
1339062333229,21.6368
1339062393229,21.5935
1339062453229,21.5984
1339062513229,21.6805
1339062573229,21.6755
1339062633229,21.6871
1339062693229,21.6856
1339062753229,21.6654
1339062813229,21.6918
1339062873229,21.6693
1339062933229,21.6644
1339062993229,21.6826
1339063053229,21.6278
1339063113229,21.6406
1339063173229,21.6349
1339063233238,21.6531
1339063293238,21.7209
1339063353238,21.6758
1339063413238,21.6855
1339063473238,21.6799
1339063533238,21.6786
1339063593238,21.6442
1339063653238,21.6315
1339063713238,21.5768
1339063773238,21.5982
1339063833238,21.5566
1339063893238,21.5486
1339063953238,21.5646
1339064013238,21.5099
1339064073238,21.5203
1339064133238,21.5261
1339064193238,21.5038
1339064253238,21.5389
1339064313238,21.5605
1339064373238,21.5273
1339064433238,21.5103
1339064493238,21.4506
1339064553238,21.5229
1339064613238,21.5118
1339064673238,21.5148
1339064733238,21.5444
1339064793238,21.5492
1339064853238,21.5462
1339064913238,21.5236
1339064973238,21.5876
1339065033238,21.5416
1339065093238,21.5368
1339065153238,21.5319
1339065213238,21.5229
1339065273238,21.5713
1339065333238,21.5226
1339065393238,21.4917
1339065453238,21.5456
1339065513238,21.5290
1339065573238,21.5185
1339065633238,21.5265
1339065693238,21.5492
1339065753238,21.5103
1339065813238,21.4929
1339065873238,21.6514
1339065933238,21.6231
1339065993238,21.5870
1339066053238,21.6481
1339066113238,21.6300
1339066173238,21.6479
1339066233238,21.6024
1339066293238,21.6009
1339066353238,21.6681
1339066413238,21.5661
1339066473238,21.6902
1339066533238,21.6147
1339066593238,21.6271
1339066653238,21.5868
1339066713238,21.5871
1339066773238,21.6361
1339066833247,21.5386
1339066893247,21.5622
1339066953247,21.6025
1339067013247,21.5591
1339067073247,21.6148
1339067133247,21.5306
1339067193247,21.4456
1339067253247,21.5604
1339067313247,21.5398
1339067373247,21.5540
1339067433247,21.5459
1339067493247,21.5682
1339067553247,21.5452
1339067613247,21.5041
1339067673247,21.5148
1339067733247,21.5504
1339067793247,21.5187
1339067853247,21.5593
1339067913247,21.4949
1339067973247,21.5585
1339068033247,21.5098
1339068093247,21.5077
1339068153247,21.5126
1339068213247,21.5211
1339068273247,21.5667
1339068333247,21.5960
1339068393247,21.6202
1339068453247,21.6614
1339068513247,21.6694
1339068573247,21.5442
1339068633247,21.5243
1339068693247,21.5513
1339068753247,21.6443
1339068813247,21.6067
1339068873247,21.5703
1339068933247,21.6172
1339068993247,21.6279
1339069053247,21.6744
1339069113247,21.5780
1339069173247,21.4913
1339069233247,21.6466
1339069293247,21.5888
1339069353247,21.6636
1339069413247,21.5704
1339069473247,21.6043
1339069533247,21.6049
1339069593247,21.6301
1339069653247,21.7295
1339069713247,21.7501
1339069773247,21.7161
1339069833247,21.7128
1339069893247,21.7218
1339069953247,21.7204
1339070013247,21.7371
1339070073247,21.7346
1339070133247,21.8370
1339070193247,21.7184
1339070253247,21.7162
1339070313247,21.7283
1339070373247,21.6986
1339070433256,21.8104
1339070493256,21.7932
1339070553257,21.7409
1339070613257,21.7424
1339070673257,21.8032
1339070733257,21.8253
1339070793257,21.7782
1339070853257,21.9249
1339070913257,22.0109
1339070973256,21.9654
1339071033256,22.0270
1339071093256,22.0404
1339071153256,21.9869
1339071213256,21.9584
1339071273256,21.9731
1339071333256,21.9501
1339071393256,21.9288
1339071453256,22.0021
1339071513256,22.0088
1339071573257,21.8987
1339071633257,21.9279
1339071693256,21.9015
1339071753256,21.8976
1339071813256,21.9339
1339071873256,21.8779
1339071933257,21.9496
1339071993257,21.8643
1339072053257,21.8185
1339072113257,21.8456
1339072173257,21.7767
1339072233257,21.7752
1339072293257,21.8088
1339072353256,21.8125
1339072413256,21.8427
1339072473256,21.8018
1339072533256,21.7145
1339072593256,21.7798
1339072653256,21.7582
1339072713256,21.7545
1339072773256,21.7304
1339072833256,21.7759
1339072893256,21.7649
1339072953257,21.7062
1339073013256,21.7244
1339073073256,21.6661
1339073133256,21.6982
1339073193256,21.7111
1339073253257,21.6923
1339073313257,21.6679
1339073373257,21.6432
1339073433257,21.6055
1339073493257,21.7248
1339073553257,21.6853
1339073613257,21.5830
1339073673256,21.6313
1339073733256,21.5980
1339073793256,21.6434
1339073853256,21.6500
1339073913256,21.6123
1339073973256,21.6234
1339074033266,21.6945
1339074093266,21.7216
1339074153266,21.8429
1339074213266,21.8182
1339074273266,21.8557
1339074333266,21.9260
1339074393266,21.8245
1339074453266,21.7799
1339074513266,21.8178
1339074573266,21.8167
1339074633266,21.8167
1339074693266,21.7992
1339074753266,21.8860
1339074813266,21.8677
1339074873266,21.8161
1339074933266,21.9037
1339074993266,21.8711
1339075053266,21.8876
1339075113266,21.8655
1339075173266,21.7752
1339075233266,21.7761
1339075293266,21.8295
1339075353266,21.8306
1339075413266,21.8069
1339075473266,21.8336
1339075533266,21.7474
1339075593266,21.7903
1339075653266,21.7826
1339075713266,21.7671
1339075773266,21.7830
1339075833266,21.7554
1339075893266,21.7485
1339075953266,21.7166
1339076013266,21.7457
1339076073266,21.6966
1339076133266,21.7112
1339076193266,21.7096
1339076253266,21.6360
1339076313266,21.7567
1339076373266,21.8151
1339076433266,21.8072
1339076493266,21.8286
1339076553266,21.7296
1339076613266,21.7010
1339076673266,21.7260
1339076733266,21.6968
1339076793266,21.6909
1339076853266,21.6966
1339076913266,21.6961
1339076973266,21.7124
1339077033266,21.6210
1339077093266,21.6938
1339077153266,21.6614
1339077213266,21.7175
1339077273266,21.7118
1339077333266,21.6517
1339077393266,21.6636
1339077453266,21.5672
1339077513266,21.6076
1339077573266,21.6359
1339077633275,21.6089
1339077693275,21.5433
1339077753275,21.6000
1339077813275,21.6027
1339077873275,21.6796
1339077933275,21.5953
1339077993275,21.5357
1339078053275,21.5677
1339078113275,21.5981
1339078173275,21.5811
1339078233275,21.5533
1339078293275,21.5159
1339078353275,21.4650
1339078413275,21.5492
1339078473275,21.4981
1339078533275,21.5375
1339078593275,21.4573
1339078653275,21.5064
1339078713275,21.4411
1339078773275,21.4852
1339078833275,21.4691
1339078893275,21.6604
1339078953275,21.7146
1339079013275,21.8045
1339079073275,21.8598
1339079133275,21.8326
1339079193275,21.8829
1339079253275,21.8284
1339079313275,21.7875
1339079373275,21.8447
1339079433275,21.8118
1339079493275,21.8104
1339079553275,21.8909
1339079613275,21.7690
1339079673275,21.7790
1339079733275,21.7704
1339079793275,21.7172
1339079853275,21.7842
1339079913275,21.7424
1339079973275,21.8199
1339080033275,21.7329
1339080093275,21.6903
1339080153275,21.6518
1339080213275,21.6474
1339080273275,21.6360
1339080333275,21.6802
1339080393275,21.6071
1339080453275,21.6886
1339080513275,21.5928
1339080573275,21.6530
1339080633275,21.6423
1339080693275,21.6342
1339080753275,21.5868
1339080813275,21.6613
1339080873275,21.6418
1339080933275,21.6277
1339080993275,21.5522
1339081053275,21.5681
1339081113275,21.5700
1339081173275,21.6016
1339081233284,21.5845
1339081293284,21.5719
1339081353284,21.5110
1339081413284,21.5162
1339081473284,21.4964
1339081533284,21.5279
1339081593284,21.4967
1339081653284,21.4682
1339081713284,21.4571
1339081773284,21.5097
1339081833284,21.4600
1339081893284,21.4033
1339081953284,21.4114
1339082013284,21.4686
1339082073284,21.4078
1339082133284,21.3640
1339082193284,21.4292
1339082253284,21.4460
1339082313284,21.4927
1339082373284,21.4621
1339082433284,21.4447
1339082493284,21.4688
1339082553284,21.4900
1339082613284,21.6221
1339082673284,21.5977
1339082733284,21.6203
1339082793284,21.6235
1339082853284,21.6548
1339082913284,21.6836
1339082973284,21.6608
1339083033284,21.6850
1339083093284,21.8237
1339083153284,21.9060
1339083213284,22.0224
1339083273284,22.2504
1339083333284,22.5000
1339083393284,23.0830
1339083453284,23.6246
1339083513284,23.7999
1339083573284,23.7369
1339083633284,23.8408
1339083693284,23.6125
1339083753284,23.2526
1339083813284,22.9758
1339083873284,22.8985
1339083933284,22.7978
1339083993284,22.7365
1339084053284,22.7606
1339084113284,22.5753
1339084173284,22.5885
1339084233284,22.6135
1339084293284,22.4359
1339084353284,22.3067
1339084413284,22.3616
1339084473284,22.3077
1339084533284,22.1954
1339084593284,22.1875
1339084653284,22.1167
1339084713284,22.1341
1339084773284,22.0794
1339084833294,22.0194
1339084893294,21.9959
1339084953294,21.9969
1339085013294,21.9065
1339085073294,21.9428
1339085133294,22.0094
1339085193294,21.9053
1339085253294,21.9589
1339085313294,21.9052
1339085373294,21.8480
1339085433294,21.7803
1339085493294,21.9837
1339085553294,21.7821
1339085613294,21.7826
1339085673294,21.7580
1339085733294,21.7940
1339085793294,21.7149
1339085853294,21.6650
1339085913294,21.6430
1339085973294,21.5771
1339086033294,21.5613
1339086093294,21.5300
1339086153294,21.6036
1339086213294,21.6565
1339086273294,21.5875
1339086333294,21.4756
1339086393294,21.6047
1339086453294,21.5628
1339086513294,21.5791
1339086573294,21.5249
1339086633294,21.5034
1339086693294,21.5099
1339086753294,21.5986
1339086813294,21.6039
1339086873294,21.4523
1339086933294,21.5340
1339086993294,21.5362
1339087053294,21.5751
1339087113294,21.4869
1339087173294,21.4604
1339087233294,21.4074
1339087293294,21.4217
1339087353294,21.3880
1339087413294,21.4457
1339087473294,21.4154
1339087533294,21.4139
1339087593294,21.4255
1339087653294,21.3571
1339087713294,21.3511
1339087773294,21.2765
1339087833294,21.3349
1339087893294,21.3653
1339087953294,21.2817
1339088013294,21.3336
1339088073294,21.3393
1339088133294,21.3348
1339088193294,21.3629
1339088253294,21.3757
1339088313294,21.2840
1339088373294,21.3196
1339088433303,21.2619
1339088493303,21.3374
1339088553303,21.2953
1339088613303,21.3708
1339088673303,21.3002
1339088733303,21.3677
1339088793303,21.3407
1339088853303,21.3656
1339088913303,21.2931
1339088973303,21.3521
1339089033303,21.3727
1339089093303,21.3940
1339089153303,21.3969
1339089213303,21.3775
1339089273303,21.3571
1339089333303,21.3785
1339089393303,21.3180
1339089453303,21.3169
1339089513303,21.3049
1339089573303,21.3419
1339089633303,21.3439
1339089693303,21.3506
1339089753303,21.2622
1339089813303,21.2755
1339089873303,21.2451
1339089933303,21.2738
1339089993303,21.3639
1339090053303,21.3258
1339090113303,21.3240
1339090173303,21.3160
1339090233303,21.3200
1339090293303,21.2455
1339090353303,21.2602
1339090413303,21.3365
1339090473303,21.3219
1339090533303,21.2766
1339090593303,21.3309
1339090653303,21.2493
1339090713303,21.3090
1339090773303,21.2897
1339090833303,21.2972
1339090893303,21.2738
1339090953303,21.2839
1339091013303,21.2727
1339091073303,21.3400
1339091133303,21.2966
1339091193303,21.2287
1339091253303,21.2561
1339091313303,21.3529
1339091373303,21.3268
1339091433303,21.1240
1339091493303,21.2724
1339091553303,21.3009
1339091613303,21.2630
1339091673303,21.2989
1339091733303,21.2929
1339091793303,21.2930
1339091853303,21.2787
1339091913303,21.2363
1339091973303,21.2816
1339092033313,21.2713
1339092093313,21.2772
1339092153313,21.2374
1339092213313,21.1695
1339092273313,21.2388
1339092333313,21.2375
1339092393313,21.2485
1339092453313,21.2707
1339092513313,21.2703
1339092573313,21.2992